Regional Weather Roundup
Issued by NWS

Home | Current Version | Previous Version | Graphics & Text | Print | Product List | Glossary On
Versions: 1 2 3 4 5 6 7 8 9 10 11 12 13 14 15 16 17 18 19 20 21 22 23 24 25 26 27 28 29 30 31 32 33 34 35 36 37 38 39 40 41 42 43 44 45 46 47 48 49 50
000
ASUS43 KBIS 101210
RWRND

NORTH DAKOTA REGIONAL WEATHER ROUNDUP
NATIONAL WEATHER SERVICE BISMARCK ND
600 AM CST WED FEB 10 2016

NOTE: "FAIR" INDICATES FEW OR NO CLOUDS BELOW 12,000 FEET WITH NO
SIGNIFICANT WEATHER AND/OR OBSTRUCTIONS TO VISIBILITY.


NDZ001>003-009>011-017-101300-
NORTHWEST NORTH DAKOTA

CITY           SKY/WX    TMP DP  RH WIND       PRES   REMARKS
WILLISTON      CLOUDY    26  23  88 SE5       29.81R
6HR MIN TEMP:  24; 6HR MAX TEMP:  30;

MINOT          CLOUDY    19  12  74 E13       29.87R WCI   6
MINOT AFB      CLOUDY    16  14  94 E15       29.87R WCI   1
$$

NDZ018>021-031>035-040>046-101300-
SOUTHWEST NORTH DAKOTA

CITY           SKY/WX    TMP DP  RH WIND       PRES   REMARKS
BISMARCK       CLOUDY    24  18  77 SE8       29.88R WCI  15
6HR MIN TEMP:  24; 6HR MAX TEMP:  31;

DICKINSON      CLOUDY    33  27  78 W12       29.79S
GARRISON         N/A     21  18  88 SE9       29.82F WCI  11
6HR MIN TEMP:  20; 6HR MAX TEMP:  25;

HETTINGER ARPT CLOUDY    24  20  84 NW7       29.85S WCI  16
$$

NDZ004>008-012>016-024-026-027-054-101300-
NORTHEAST NORTH DAKOTA

CITY           SKY/WX    TMP DP  RH WIND       PRES   REMARKS
GRAND FORKS    LGT SNOW   5  -2  72 SE7       30.13R WCI  -7
GRND FRKS AFB  FLURRIES   4  -2  75 SE7       30.12R WCI  -8
DEVILS LAKE    LGT SNOW   3   0  85 SE15      30.01S FOG     WCI -15
$$

NDZ022-023-025-028>030-036>039-047>053-101300-
SOUTHEAST NORTH DAKOTA

CITY           SKY/WX    TMP DP  RH WIND       PRES   REMARKS
FARGO          FLURRIES   7   0  73 E5        30.10F WCI  -2
6HR MIN TEMP:   4; 6HR MAX TEMP:   7; 6HR PCP: TRACE;

JAMESTOWN      LGT SNOW   7   2  80 SE14      29.98S WCI -10
$$




USA.gov is the U.S. government's official web portal to all federal, state and local government web resources and services.